Location: Helds Island Access
(38.5526°N, 91.5997°W)
Time: 18:46:12
(UTC-06:00)

Daily predictions for brighter satellites

Satellite Brightness Start Highest point End
(mag) Time Altitude Azimuth Time Altitude Azimuth Time Altitude Azimuth
Cosmos 1295 Rocket 4.5 17:00:37 10° N 17:06:42 63° E 17:12:43 10° SSE
CZ-2C R/B 2.8 17:05:07 10° SE 17:09:48 44° ENE 17:14:37 10° N
Cosmos 1975 4.3 17:08:39 10° NNE 17:11:24 17° ENE 17:14:07 10° ESE
COSMOS 2406 3.3 17:05:47 10° NNW 17:11:32 85° ENE 17:17:17 10° SSE
Cosmos 2251 Rocket 4.0 17:08:21 10° N 17:13:21 39° ENE 17:18:17 10° SE
MOS 1 4.4 17:11:03 10° SSE 17:16:34 57° ENE 17:22:07 10° N
Okean 3 4.5 17:13:20 10° SSW 17:17:31 51° W 17:21:41 10° N
Cosmos 158 Rocket 4.1 17:12:38 10° NNW 17:18:01 89° ENE 17:23:15 10° SSE
SL-27 R/B 2.8 17:16:31 10° N 17:20:04 46° ENE 17:23:35 10° SE
Cosmos 2341 Rocket 4.3 17:15:11 10° N 17:21:23 74° W 17:27:34 10° S
Meteor 1-5 Rocket 4.2 17:16:28 10° N 17:21:56 82° E 17:27:32 10° S
SL-8 R/B 3.7 17:21:30 10° SW 17:26:15 74° SE 17:30:50 11° ENE
Cosmos 2082 Rocket 3.6 17:24:42 10° NNE 17:28:23 17° NE 17:32:04 10° E
Cosmos 1484 Rocket 3.9 17:26:00 10° ESE 17:28:56 22° ENE 17:31:52 10° NNE
Cosmos 1833 Rocket 4.2 17:26:41 10° NNE 17:29:55 15° NE 17:33:05 10° E
Cosmos 1544 Rocket 3.5 17:33:10 10° N 17:37:39 75° E 17:42:06 10° SSE
COSMO-SKYMED 1 3.3 17:35:17 10° NNE 17:39:13 32° E 17:43:05 10° SSE
Cosmos 1975 Rocket 4.3 17:35:46 10° SSW 17:39:51 42° W 17:43:58 10° N
Cosmos 1500 4.0 17:38:21 10° NNE 17:41:42 28° ENE 17:45:03 10° SE
Nadezhda 3 Rocket 4.4 17:42:00 10° SSE 17:47:39 39° E 17:53:22 10° NNE
Cosmos 864 Rocket 4.5 17:43:12 10° N 17:49:30 76° E 17:55:48 10° SSE
Tiangong 1 1.7 17:53:09 10° SW 17:56:01 40° SSE 17:57:11 26° E
Cosmos 1536 Rocket 3.5 17:51:53 10° S 17:56:21 85° E 18:00:50 10° N
GEOS 3 Rocket 4.1 17:53:39 10° ESE 17:58:17 36° NE 18:02:56 10° NNW
Okean 1 3.3 17:57:59 10° S 18:02:02 89° E 18:06:07 10° N
BREEZE-M DEB (TANK) 4.0 18:02:35 10° NW 18:03:46 13° N 18:04:10 13° N
YAOGAN 1 3.4 17:59:53 10° S 18:04:06 53° W 18:08:21 10° NNW
SPOT 3 Rocket 4.4 17:59:24 10° S 18:04:28 53° W 18:09:33 10° NNW
Cosmos 1812 3.5 18:02:08 10° SSW 18:05:54 54° W 18:09:41 10° N
Cosmos 1025 Rocket 4.3 18:04:46 10° SE 18:07:27 22° ESE 18:07:27 22° ESE
ATLAS 3B CENTAUR R/B 4.5 17:48:04 10° WSW 18:09:10 49° S 18:15:57 15° ESE
SKYMED 3 4.5 18:04:58 10° NNE 18:09:20 73° ESE 18:13:39 10° S
USA 234 4.2 18:03:52 11° NNE 18:09:36 39° NNW 18:15:32 10° W
CZ-3A R/B 4.4 18:06:01 10° W 18:11:38 43° N 18:30:39 17° NE
COSMOS 2487 2.8 18:08:12 10° N 18:11:38 42° ENE 18:13:00 28° ESE
Cosmos 1844 Rocket 4.3 18:07:56 10° WSW 18:12:52 31° WNW 18:17:51 10° N
Cosmos 921 Rocket 3.4 18:09:32 10° S 18:13:29 40° E 18:14:35 33° ENE
Meteor 2-21 Rocket 4.5 18:07:31 10° N 18:13:36 55° E 18:19:36 10° SSE
ISS -0.9 18:11:54 10° NW 18:13:51 15° NNW 18:14:53 13° N
Cosmos 375 4.3 18:11:01 10° NNW 18:15:20 63° NE 18:17:40 22° SE
Cosmos 1346 Rocket 2.6 18:14:00 10° S 18:17:55 90° ESE 18:20:56 16° N
BREEZE M DEB (TANK) 4.1 18:15:37 10° NW 18:19:13 34° NNE 18:21:53 27° ENE
IDEFIX/ARIANE 42P 4.2 18:20:32 10° SSW 18:25:16 35° W 18:30:01 10° NNW
NOSS 3-3 (A) 4.4 18:20:08 10° SW 18:26:15 63° NW 18:31:29 17° NNE
NOSS 3-3 (C) 4.4 18:20:14 10° SW 18:26:21 64° NW 18:31:33 17° NNE
SKYMED 2 3.8 18:23:02 10° N 18:27:21 69° WNW 18:31:40 10° SSW
Okean 1-7 Rocket 3.5 18:25:30 10° S 18:29:59 70° E 18:32:13 29° NNE
Cosmos 2297 3.6 18:26:10 10° SSW 18:31:48 80° ESE 18:35:04 26° NNE
ATLAS 2AS CENTAUR R/B 3.7 18:28:45 10° NW 18:36:28 54° WSW 18:43:38 10° S
Delta 2 Rocket 3.9 18:33:55 10° WSW 18:37:40 43° SSE 18:38:03 42° SSE
OTV 4 3.6 18:40:39 10° SW 18:41:16 10° SSW 18:41:52 10° SSW
Cosmos 1535 Rocket 4.4 18:39:27 10° N 18:45:47 70° E 18:51:57 10° SSE
Cosmos 2278 Rocket 3.5 18:41:01 10° SW 18:46:12 37° WNW 18:51:13 11° N
Cosmos 1934 Rocket 4.0 18:40:18 10° N 18:46:23 55° E 18:52:31 10° SSE
Meteor 1-19 Rocket 4.4 18:50:23 10° SSW 18:56:09 76° W 19:00:54 16° N
Timation 2 Rocket 4.1 18:50:05 10° NNW 18:56:58 87° WSW 19:03:51 10° SSE
Genesis I 3.8 18:54:53 10° NW 18:58:26 54° W 18:58:26 54° W
Cosmos 2239 Rocket 4.4 18:55:54 10° N 19:02:07 85° W 19:08:15 10° S
NOAA 12 4.4 19:00:04 10° S 19:05:19 67° WSW 19:10:34 10° NNW
Cosmos 1821 Rocket 4.0 19:05:38 10° N 19:11:42 74° W 19:17:46 10° S
Cosmos 2082 Rocket 2.4 19:07:23 10° NNW 19:13:01 71° WSW 19:15:49 31° S
Meteor 2-8 Rocket 4.3 19:07:15 10° S 19:13:19 88° E 19:14:09 69° NNE
METEOR-M 4.4 19:08:24 10° S 19:13:41 66° WSW 19:19:01 10° NNW
Cosmos 1833 Rocket 2.6 19:08:53 10° NNW 19:14:33 81° WSW 19:14:56 76° SSW
Meteor 1-23 Rocket 4.4 19:19:45 10° SSW 19:25:27 68° W 19:25:42 67° WNW
CZ-3B DEB 4.2 19:23:15 10° WNW 19:28:25 33° N 19:30:57 29° NNE
FALCON 9 R/B 3.7 20:04:50 10° W 20:15:38 47° WSW 20:15:38 47° WSW
